Location: Saint-Gaudens
(43.1069°N, 0.7238°E)
Time: 18:39:54
(UTC+01:00)

ISS - Visible Passes

Search period start: 19 January 2021 00:00
Search period end: 29 January 2021 00:00
Orbit: 418 x 419 km, 51.6° (Epoch: 20 January)

Date Brightness Start Highest point End Pass type
(mag) Time Alt. Az. Time Alt. Az. Time Alt. Az.
19 Jan -3.6 19:26:53 10° SW 19:30:09 52° SE 19:30:32 48° ESE visible
20 Jan -2.7 18:39:31 10° SSW 18:42:31 31° SE 18:45:00 13° ENE visible
20 Jan -1.7 20:16:02 10° W 20:17:58 27° WNW 20:17:58 27° WNW visible
21 Jan -3.4 19:28:06 10° WSW 19:31:26 60° NNW 19:32:21 41° NNE visible
22 Jan -3.8 18:40:19 10° SW 18:43:40 86° SE 18:46:40 13° ENE visible
22 Jan -1.4 20:17:57 10° WNW 20:19:37 20° NW 20:19:37 20° NW visible
23 Jan -2.4 19:29:51 10° W 19:32:53 30° NNW 19:33:53 25° NNE visible
24 Jan -2.8 18:41:47 10° W 18:45:00 41° NNW 18:48:06 11° NE visible
24 Jan -1.1 20:19:54 10° NW 20:21:03 16° NW 20:21:03 16° NW visible
25 Jan -1.9 19:31:46 10° WNW 19:34:26 21° N 19:35:14 19° N visible
26 Jan -2.1 18:43:37 10° WNW 18:46:27 25° NNW 18:49:18 10° NE visible
26 Jan -1.0 20:21:32 10° NW 20:22:21 14° NNW 20:22:21 14° NNW visible
27 Jan -1.8 19:33:33 10° NW 19:36:02 19° N 19:36:30 18° NNE visible
28 Jan -1.8 18:45:27 10° NW 18:48:00 19° N 18:50:31 10° NE visible
28 Jan -1.1 20:22:45 10° NW 20:23:37 15° NNW 20:23:37 15° NNW visible
